Location: Malanoce
(44.2500°N, 7.4667°E)
Time: 13:05:53
(UTC+00:00)

Cosmos 2278 Rocket - Pass Details

Date: 17 November 2025
Orbit: 841 x 843 km, 71.0° (Epoch: 06 December)

Event Time Altitude Azimuth Distance (km) Brightness Sun altitude
Rises 17:49:20 0° 219° (SW) 3,385 6.1 -19.2°
Reaches altitude 10° 17:51:50 10° 224° (SW) 2,454 5.3 -19.7°
Maximum altitude 17:57:19 51° 301° (WNW) 1,050 2.9 -20.7°
Enters shadow 18:02:46 10° 17° (NNE) 2,447 4.4 -21.6°
